Location: Barruelo
(41.2448°N, 3.8231°W)
Time: 20:09:40
(UTC+00:00)

Meteor 1-20 Rocket - Pass Details

Date: 11 December 2025
Orbit: 818 x 890 km, 81.2° (Epoch: 12 January)

Event Time Altitude Azimuth Distance (km) Brightness Sun altitude
Rises 17:35:25 0° 351° (N) 3,358 7.2 -9.1°
Reaches altitude 10° 17:37:49 10° 352° (N) 2,420 6.4 -9.5°
Maximum altitude 17:43:17 83° 81° (E) 830 4.1 -10.5°
Drops below altitude 10° 17:48:45 10° 169° (S) 2,416 6.7 -11.4°
Sets 17:51:09 0° 170° (S) 3,352 7.5 -11.8°
